• en France
  • Liste des pays
  • À 7 jours
  • Température de l'eau
  • Carte satellitaire
  • Carte météo
  • Widgets météo
  • user-avatar
    Se connecter

    Météo par heure à Chakhansur

    Ce jour, 24 Novembre, Vendredi

    Heure Température Précipitation Vent Pression Humidité
    00:00 +19°C° 0 mm 2 m/s 716 mmHg 10%
    01:00 +19°C° 0 mm 2 m/s 716 mmHg 10%
    02:00 +19°C° 0 mm 2 m/s 716 mmHg 11%
    03:00 +19°C° 0 mm 2 m/s 716 mmHg 11%
    04:00 +19°C° 0 mm 2 m/s 716 mmHg 12%
    05:00 +19°C° 0 mm 3 m/s 717 mmHg 13%
    06:00 +19°C° 0 mm 3 m/s 717 mmHg 13%
    07:00 +19°C° 0 mm 3 m/s 718 mmHg 14%
    08:00 +21°C° 0 mm 3 m/s 718 mmHg 14%
    09:00 +22°C° 0 mm 4 m/s 718 mmHg 15%
    10:00 +23°C° 0 mm 4 m/s 719 mmHg 15%
    11:00 +25°C° 0 mm 4 m/s 718 mmHg 16%
    12:00 +26°C° 0 mm 3 m/s 718 mmHg 18%
    13:00 +27°C° 0 mm 3 m/s 718 mmHg 19%
    14:00 +27°C° 0 mm 3 m/s 717 mmHg 20%
    15:00 +27°C° 0 mm 2 m/s 717 mmHg 22%
    16:00 +27°C° 0 mm 2 m/s 717 mmHg 23%
    17:00 +26°C° 0 mm 3 m/s 717 mmHg 23%
    18:00 +23°C° 0 mm 4 m/s 717 mmHg 23%
    19:00 +22°C° 0 mm 5 m/s 717 mmHg 23%
    20:00 +22°C° 0 mm 5 m/s 717 mmHg 22%
    21:00 +22°C° 0 mm 5 m/s 717 mmHg 21%
    22:00 +21°C° 0 mm 5 m/s 717 mmHg 21%
    23:00 +21°C° 0 mm 5 m/s 717 mmHg 22%

    Demain, 25 Novembre, Samedi

    Heure Température Précipitation Vent Pression Humidité
    00:00 +21°C° 0 mm 4 m/s 717 mmHg 23%
    01:00 +20°C° 0 mm 4 m/s 717 mmHg 24%
    02:00 +20°C° 0 mm 3 m/s 717 mmHg 27%
    03:00 +19°C° 0 mm 3 m/s 717 mmHg 31%
    04:00 +19°C° 0 mm 3 m/s 716 mmHg 35%
    05:00 +18°C° 0 mm 3 m/s 717 mmHg 36%
    06:00 +18°C° 0 mm 3 m/s 718 mmHg 37%
    07:00 +18°C° 0 mm 3 m/s 718 mmHg 38%
    08:00 +19°C° 0 mm 3 m/s 719 mmHg 34%
    09:00 +21°C° 0 mm 4 m/s 720 mmHg 30%
    10:00 +23°C° 0 mm 4 m/s 720 mmHg 25%
    11:00 +23°C° 0 mm 5 m/s 720 mmHg 24%
    12:00 +24°C° 0 mm 6 m/s 720 mmHg 22%
    13:00 +26°C° 0 mm 7 m/s 720 mmHg 20%
    14:00 +26°C° 0 mm 6 m/s 720 mmHg 21%
    15:00 +24°C° 0 mm 6 m/s 720 mmHg 21%
    16:00 +25°C° 0 mm 5 m/s 720 mmHg 21%
    17:00 +23°C° 0 mm 5 m/s 721 mmHg 22%
    18:00 +21°C° 0 mm 4 m/s 721 mmHg 24%
    19:00 +20°C° 0 mm 4 m/s 722 mmHg 25%
    20:00 +19°C° 0 mm 3 m/s 722 mmHg 25%
    21:00 +19°C° 0 mm 3 m/s 722 mmHg 25%
    22:00 +18°C° 0 mm 3 m/s 723 mmHg 25%
    23:00 +17°C° 0 mm 3 m/s 723 mmHg 25%

    Après-demain, 26 Novembre, Dimanche

    Heure Température Précipitation Vent Pression Humidité
    00:00 +17°C° 0 mm 4 m/s 723 mmHg 25%
    01:00 +15°C° 0 mm 4 m/s 723 mmHg 25%
    02:00 +15°C° 0 mm 4 m/s 723 mmHg 24%
    03:00 +14°C° 0 mm 4 m/s 723 mmHg 23%
    04:00 +14°C° 0 mm 4 m/s 723 mmHg 22%
    05:00 +13°C° 0 mm 4 m/s 724 mmHg 22%
    06:00 +13°C° 0 mm 4 m/s 724 mmHg 21%
    07:00 +13°C° 0 mm 4 m/s 724 mmHg 21%
    08:00 +15°C° 0 mm 4 m/s 725 mmHg 18%
    09:00 +17°C° 0 mm 4 m/s 726 mmHg 15%
    10:00 +19°C° 0 mm 5 m/s 726 mmHg 13%
    11:00 +20°C° 0 mm 5 m/s 726 mmHg 11%
    12:00 +21°C° 0 mm 5 m/s 725 mmHg 10%
    13:00 +22°C° 0 mm 5 m/s 725 mmHg 8%
    14:00 +22°C° 0 mm 4 m/s 724 mmHg 9%
    15:00 +22°C° 0 mm 4 m/s 724 mmHg 9%
    16:00 +22°C° 0 mm 4 m/s 724 mmHg 9%
    17:00 +21°C° 0 mm 4 m/s 724 mmHg 10%
    18:00 +19°C° 0 mm 4 m/s 724 mmHg 12%
    19:00 +18°C° 0 mm 4 m/s 725 mmHg 14%
    20:00 +17°C° 0 mm 4 m/s 725 mmHg 15%
    21:00 +17°C° 0 mm 4 m/s 725 mmHg 17%
    22:00 +15°C° 0 mm 4 m/s 725 mmHg 19%
    23:00 +14°C° 0 mm 4 m/s 724 mmHg 20%

    27 Novembre, Lundi

    Heure Température Précipitation Vent Pression Humidité
    00:00 +14°C° 0 mm 4 m/s 724 mmHg 22%
    01:00 +13°C° 0 mm 3 m/s 723 mmHg 23%
    02:00 +13°C° 0 mm 3 m/s 723 mmHg 24%
    03:00 +12°C° 0 mm 3 m/s 723 mmHg 25%
    04:00 +12°C° 0 mm 3 m/s 723 mmHg 26%
    05:00 +12°C° 0 mm 3 m/s 723 mmHg 27%
    06:00 +12°C° 0 mm 2 m/s 723 mmHg 27%
    07:00 +12°C° 0 mm 2 m/s 724 mmHg 27%
    08:00 +14°C° 0 mm 2 m/s 724 mmHg 24%
    09:00 +16°C° 0 mm 2 m/s 724 mmHg 21%
    10:00 +17°C° 0 mm 2 m/s 724 mmHg 18%
    11:00 +19°C° 0 mm 2 m/s 724 mmHg 16%
    12:00 +20°C° 0 mm 2 m/s 723 mmHg 15%
    13:00 +21°C° 0 mm 2 m/s 722 mmHg 13%
    14:00 +22°C° 0 mm 1 m/s 722 mmHg 13%
    15:00 +22°C° 0 mm 1 m/s 722 mmHg 13%
    16:00 +22°C° 0 mm 1 m/s 721 mmHg 13%
    17:00 +20°C° 0 mm 1 m/s 721 mmHg 14%
    18:00 +19°C° 0 mm 1 m/s 721 mmHg 16%
    19:00 +18°C° 0 mm 1 m/s 721 mmHg 17%
    20:00 +16°C° 0 mm 1 m/s 721 mmHg 18%
    21:00 +15°C° 0 mm 1 m/s 721 mmHg 19%
    22:00 +15°C° 0 mm 1 m/s 721 mmHg 20%
    23:00 +15°C° 0 mm 1 m/s 720 mmHg 20%

    28 Novembre, Mardi

    Heure Température Précipitation Vent Pression Humidité
    00:00 +14°C° 0 mm 1 m/s 720 mmHg 21%
    01:00 +14°C° 0 mm 1 m/s 720 mmHg 22%
    02:00 +13°C° 0 mm 1 m/s 719 mmHg 23%
    03:00 +13°C° 0 mm 1 m/s 719 mmHg 23%
    04:00 +13°C° 0 mm 1 m/s 719 mmHg 24%
    05:00 +12°C° 0 mm 0 m/s 719 mmHg 23%
    06:00 +12°C° 0 mm 0 m/s 719 mmHg 22%
    07:00 +12°C° 0 mm 0 m/s 720 mmHg 22%
    08:00 +14°C° 0 mm 0 m/s 720 mmHg 19%
    09:00 +17°C° 0 mm 0 m/s 720 mmHg 16%
    10:00 +19°C° 0 mm 0 m/s 721 mmHg 14%
    11:00 +22°C° 0 mm 1 m/s 720 mmHg 13%
    12:00 +22°C° 0 mm 1 m/s 720 mmHg 12%
    13:00 +23°C° 0 mm 1 m/s 719 mmHg 11%
    14:00 +23°C° 0 mm 1 m/s 719 mmHg 11%
    15:00 +23°C° 0 mm 1 m/s 719 mmHg 11%
    16:00 +23°C° 0 mm 1 m/s 719 mmHg 12%
    17:00 +22°C° 0 mm 1 m/s 719 mmHg 13%
    18:00 +20°C° 0 mm 1 m/s 719 mmHg 14%
    19:00 +19°C° 0 mm 1 m/s 719 mmHg 15%
    20:00 +19°C° 0 mm 1 m/s 719 mmHg 16%
    21:00 +18°C° 0 mm 1 m/s 720 mmHg 17%
    22:00 +18°C° 0 mm 1 m/s 720 mmHg 17%
    23:00 +16°C° 0 mm 2 m/s 720 mmHg 18%

    29 Novembre, Mercredi

    Heure Température Précipitation Vent Pression Humidité
    00:00 +16°C° 0 mm 2 m/s 719 mmHg 19%
    01:00 +16°C° 0 mm 2 m/s 719 mmHg 20%
    02:00 +15°C° 0 mm 2 m/s 719 mmHg 20%
    03:00 +15°C° 0 mm 2 m/s 719 mmHg 21%
    04:00 +14°C° 0 mm 2 m/s 720 mmHg 22%
    05:00 +14°C° 0 mm 2 m/s 720 mmHg 23%
    06:00 +14°C° 0 mm 2 m/s 720 mmHg 24%
    07:00 +14°C° 0 mm 2 m/s 721 mmHg 25%
    08:00 +16°C° 0 mm 2 m/s 721 mmHg 23%
    09:00 +18°C° 0 mm 2 m/s 722 mmHg 21%
    10:00 +20°C° 0 mm 2 m/s 722 mmHg 18%
    11:00 +21°C° 0 mm 2 m/s 722 mmHg 17%
    12:00 +23°C° 0 mm 2 m/s 721 mmHg 15%
    13:00 +24°C° 0 mm 2 m/s 721 mmHg 14%
    14:00 +24°C° 0 mm 2 m/s 721 mmHg 14%
    15:00 +24°C° 0 mm 2 m/s 721 mmHg 14%
    16:00 +24°C° 0 mm 2 m/s 721 mmHg 14%
    17:00 +22°C° 0 mm 1 m/s 721 mmHg 16%
    18:00 +21°C° 0 mm 1 m/s 721 mmHg 18%
    19:00 +19°C° 0 mm 1 m/s 721 mmHg 20%
    20:00 +18°C° 0 mm 1 m/s 721 mmHg 21%
    21:00 +18°C° 0 mm 1 m/s 721 mmHg 22%
    22:00 +18°C° 0 mm 1 m/s 721 mmHg 23%
    23:00 +16°C° 0 mm 1 m/s 721 mmHg 25%
    Voir plus